When you browse on this site, cookies collect data to enhance your experience and personalize the content and advertising you see.
Visit our Privacy Policy to learn more. By continuing to use the site, you agree to this use of cookies and data.
  • In Spain
  • List of Countries
  • For 7 days
  • Water Temperature
  • Satellite Maps
  • Weather Map
  • Weather Widgets
  • user-avatar
    Login

    Hourly Weather Bangalol

    Today, 23 April, Tuesday

    Time Temperature Precipitation Wind Pressure Humidity
    00:00 +29°C° 0.1 mm 3 mps 697 mmHg 61%
    01:00 +28°C° 0.1 mm 2 mps 697 mmHg 64%
    02:00 +28°C° 0.1 mm 1 mps 697 mmHg 66%
    03:00 +28°C° 0 mm 1 mps 697 mmHg 66%
    04:00 +28°C° 0 mm 1 mps 697 mmHg 66%
    05:00 +27°C° 0 mm 1 mps 697 mmHg 66%
    06:00 +28°C° 0 mm 1 mps 698 mmHg 63%
    07:00 +29°C° 0 mm 1 mps 698 mmHg 59%
    08:00 +30°C° 0 mm 1 mps 699 mmHg 56%
    09:00 +32°C° 0 mm 1 mps 699 mmHg 49%
    10:00 +34°C° 0 mm 1 mps 699 mmHg 41%
    11:00 +34°C° 0 mm 0 mps 699 mmHg 34%
    12:00 +36°C° 0 mm 1 mps 698 mmHg 33%
    13:00 +36°C° 0 mm 1 mps 698 mmHg 31%
    14:00 +37°C° 0 mm 2 mps 697 mmHg 29%
    15:00 +36°C° 0 mm 2 mps 697 mmHg 29%
    16:00 +36°C° 0 mm 2 mps 697 mmHg 29%
    17:00 +36°C° 0 mm 2 mps 697 mmHg 28%
    18:00 +35°C° 0 mm 2 mps 697 mmHg 31%
    19:00 +34°C° 0 mm 2 mps 697 mmHg 33%
    20:00 +32°C° 0 mm 2 mps 698 mmHg 36%
    21:00 +31°C° 0.2 mm 3 mps 698 mmHg 42%
    22:00 +32°C° 0.2 mm 4 mps 699 mmHg 48%
    23:00 +30°C° 0.2 mm 5 mps 699 mmHg 54%

    Tomorrow, 24 April, Wednesday

    Time Temperature Precipitation Wind Pressure Humidity
    00:00 +29°C° 0.1 mm 4 mps 698 mmHg 58%
    01:00 +28°C° 0.1 mm 3 mps 698 mmHg 62%
    02:00 +28°C° 0.1 mm 2 mps 698 mmHg 65%
    03:00 +27°C° 0 mm 1 mps 698 mmHg 66%
    04:00 +27°C° 0 mm 1 mps 698 mmHg 67%
    05:00 +26°C° 0 mm 1 mps 698 mmHg 68%
    06:00 +28°C° 0 mm 1 mps 698 mmHg 63%
    07:00 +29°C° 0 mm 1 mps 699 mmHg 57%
    08:00 +30°C° 0 mm 1 mps 700 mmHg 52%
    09:00 +32°C° 0 mm 2 mps 700 mmHg 43%
    10:00 +35°C° 0 mm 3 mps 700 mmHg 34%
    11:00 +37°C° 0 mm 3 mps 700 mmHg 26%
    12:00 +37°C° 0 mm 4 mps 699 mmHg 23%
    13:00 +38°C° 0 mm 4 mps 698 mmHg 21%
    14:00 +40°C° 0 mm 5 mps 697 mmHg 19%
    15:00 +40°C° 0 mm 5 mps 697 mmHg 20%
    16:00 +39°C° 0 mm 5 mps 697 mmHg 21%
    17:00 +39°C° 0 mm 5 mps 696 mmHg 22%
    18:00 +36°C° 0 mm 4 mps 697 mmHg 25%
    19:00 +35°C° 0 mm 4 mps 697 mmHg 27%
    20:00 +33°C° 0 mm 3 mps 698 mmHg 30%
    21:00 +33°C° 0 mm 3 mps 698 mmHg 33%
    22:00 +31°C° 0 mm 3 mps 698 mmHg 36%
    23:00 +30°C° 0 mm 3 mps 699 mmHg 39%

    Day after tomorrow, 25 April, Thursday

    Time Temperature Precipitation Wind Pressure Humidity
    00:00 +30°C° 0 mm 2 mps 698 mmHg 41%
    01:00 +29°C° 0 mm 2 mps 698 mmHg 44%
    02:00 +28°C° 0 mm 1 mps 697 mmHg 46%
    03:00 +28°C° 0 mm 1 mps 697 mmHg 49%
    04:00 +27°C° 0 mm 1 mps 697 mmHg 51%
    05:00 +27°C° 0 mm 1 mps 697 mmHg 53%
    06:00 +28°C° 0 mm 1 mps 698 mmHg 50%
    07:00 +29°C° 0 mm 1 mps 699 mmHg 47%
    08:00 +31°C° 0 mm 1 mps 699 mmHg 44%
    09:00 +32°C° 0 mm 1 mps 699 mmHg 38%
    10:00 +35°C° 0 mm 2 mps 699 mmHg 31%
    11:00 +37°C° 0 mm 2 mps 699 mmHg 25%
    12:00 +38°C° 0 mm 2 mps 699 mmHg 23%
    13:00 +38°C° 0 mm 3 mps 698 mmHg 20%
    14:00 +39°C° 0 mm 3 mps 697 mmHg 17%
    15:00 +40°C° 0 mm 4 mps 697 mmHg 18%
    16:00 +40°C° 0 mm 4 mps 697 mmHg 18%
    17:00 +38°C° 0 mm 4 mps 696 mmHg 18%
    18:00 +37°C° 0 mm 3 mps 697 mmHg 21%
    19:00 +35°C° 0 mm 3 mps 698 mmHg 24%
    20:00 +34°C° 0 mm 3 mps 698 mmHg 26%
    21:00 +33°C° 0 mm 3 mps 698 mmHg 29%
    22:00 +31°C° 0 mm 2 mps 699 mmHg 32%
    23:00 +30°C° 0 mm 2 mps 699 mmHg 34%

    26 April, Friday

    Time Temperature Precipitation Wind Pressure Humidity
    00:00 +30°C° 0 mm 2 mps 698 mmHg 40%
    01:00 +29°C° 0 mm 2 mps 697 mmHg 45%
    02:00 +28°C° 0 mm 1 mps 697 mmHg 51%
    03:00 +28°C° 0 mm 1 mps 697 mmHg 56%
    04:00 +27°C° 0 mm 1 mps 697 mmHg 61%
    05:00 +27°C° 0 mm 1 mps 697 mmHg 66%
    06:00 +28°C° 0 mm 1 mps 697 mmHg 62%
    07:00 +29°C° 0 mm 2 mps 698 mmHg 58%
    08:00 +30°C° 0 mm 2 mps 699 mmHg 54%
    09:00 +32°C° 0 mm 2 mps 699 mmHg 45%
    10:00 +35°C° 0 mm 2 mps 699 mmHg 36%
    11:00 +37°C° 0 mm 2 mps 699 mmHg 28%
    12:00 +38°C° 0 mm 2 mps 698 mmHg 24%
    13:00 +39°C° 0 mm 3 mps 697 mmHg 21%
    14:00 +41°C° 0 mm 4 mps 696 mmHg 18%
    15:00 +41°C° 0 mm 4 mps 696 mmHg 19%
    16:00 +39°C° 0 mm 3 mps 696 mmHg 19%
    17:00 +39°C° 0 mm 3 mps 696 mmHg 20%
    18:00 +37°C° 0 mm 3 mps 696 mmHg 21%
    19:00 +36°C° 0 mm 3 mps 697 mmHg 23%
    20:00 +35°C° 0 mm 3 mps 697 mmHg 24%
    21:00 +34°C° 0 mm 3 mps 698 mmHg 26%
    22:00 +33°C° 0 mm 3 mps 698 mmHg 27%
    23:00 +31°C° 0 mm 2 mps 698 mmHg 29%

    27 April, Saturday

    Time Temperature Precipitation Wind Pressure Humidity
    00:00 +30°C° 0 mm 2 mps 697 mmHg 35%
    01:00 +29°C° 0 mm 2 mps 697 mmHg 42%
    02:00 +28°C° 0 mm 2 mps 696 mmHg 49%
    03:00 +28°C° 0 mm 1 mps 696 mmHg 57%
    04:00 +27°C° 0 mm 1 mps 696 mmHg 65%
    05:00 +27°C° 0 mm 1 mps 696 mmHg 72%
    06:00 +28°C° 0 mm 1 mps 697 mmHg 67%
    07:00 +29°C° 0 mm 2 mps 698 mmHg 62%
    08:00 +30°C° 0 mm 2 mps 698 mmHg 57%
    09:00 +32°C° 0 mm 2 mps 698 mmHg 48%
    10:00 +36°C° 0 mm 2 mps 698 mmHg 39%
    11:00 +38°C° 0 mm 2 mps 698 mmHg 29%
    12:00 +38°C° 0 mm 2 mps 697 mmHg 26%
    13:00 +39°C° 0 mm 2 mps 697 mmHg 23%
    14:00 +40°C° 0 mm 2 mps 696 mmHg 19%
    15:00 +39°C° 0 mm 2 mps 696 mmHg 20%
    16:00 +39°C° 0 mm 2 mps 696 mmHg 22%
    17:00 +38°C° 0 mm 2 mps 695 mmHg 23%
    18:00 +37°C° 0.1 mm 2 mps 696 mmHg 25%
    19:00 +36°C° 0.1 mm 2 mps 697 mmHg 26%
    20:00 +36°C° 0.1 mm 2 mps 698 mmHg 28%
    21:00 +35°C° 0 mm 2 mps 698 mmHg 31%
    22:00 +35°C° 0 mm 2 mps 698 mmHg 34%
    23:00 +34°C° 0 mm 2 mps 698 mmHg 36%

    28 April, Sunday

    Time Temperature Precipitation Wind Pressure Humidity
    00:00 +32°C° 0 mm 2 mps 697 mmHg 45%
    01:00 +31°C° 0 mm 2 mps 696 mmHg 53%
    02:00 +29°C° 0 mm 2 mps 696 mmHg 61%
    03:00 +29°C° 0 mm 2 mps 696 mmHg 65%
    04:00 +28°C° 0 mm 2 mps 696 mmHg 69%
    05:00 +28°C° 0 mm 2 mps 696 mmHg 73%
    06:00 +28°C° 0 mm 2 mps 697 mmHg 69%
    07:00 +29°C° 0 mm 2 mps 697 mmHg 64%
    08:00 +30°C° 0 mm 3 mps 698 mmHg 60%
    09:00 +32°C° 0 mm 2 mps 698 mmHg 51%
    10:00 +35°C° 0 mm 2 mps 698 mmHg 43%
    11:00 +37°C° 0 mm 2 mps 697 mmHg 34%
    12:00 +37°C° 0 mm 1 mps 697 mmHg 31%
    13:00 +40°C° 0 mm 1 mps 696 mmHg 27%
    14:00 +38°C° 0 mm 0 mps 695 mmHg 23%
    15:00 +40°C° 0 mm 1 mps 695 mmHg 25%
    16:00 +39°C° 0 mm 1 mps 695 mmHg 26%
    17:00 +38°C° 0 mm 2 mps 695 mmHg 27%
    18:00 +37°C° 0 mm 2 mps 696 mmHg 30%
    19:00 +36°C° 0 mm 2 mps 696 mmHg 33%
    20:00 +35°C° 0 mm 2 mps 697 mmHg 35%
    21:00 +34°C° 0.8 mm 2 mps 697 mmHg 43%
    22:00 +31°C° 0.8 mm 3 mps 697 mmHg 51%
    23:00 +30°C° 0.8 mm 3 mps 697 mmHg 58%
    Show more